Flag for India Weather past 2 weeks in Sawai Madhopur, Rajasthan, India

66 °F

Scattered clouds.

Feels Like: 66 °F
Forecast: 63 / 79 °F
Wind: 5 mph from Southeast

Location: Jaipur / Sanganer

Current Time: Nov 26, 2015 at 9:00:13 AM

Latest Report: Nov 26, 2015 at 8:00 AM

Visibility: 2 mi

Pressure: 30.01 "Hg

Humidity: 46%

Dew point: 45 °F

Location of Sawai MadhopurLocation

Historic Weather in Sawai Madhopur — Graph


Sawai Madhopur temperature yesterday

Maximum temperature yesterday: 84 °F (at 3:00 PM)
Minimum temperature yesterday: 61 °F (at 6:00 AM)
Average temperature yesterday: 73 °F

Past Weeks' High & Low Weather Summary

High90 °F (Nov 15, 4:00 PM)68% (Nov 12, 5:00 AM)30.18 "Hg (Nov 12, 5:00 AM)
Low57 °F (Nov 18, 5:00 AM)13% (Nov 18, 4:00 PM)29.86 "Hg (Nov 15, 5:00 PM)
Average73 °F38%30.02 "Hg
* Reported Nov 11 8:00 AM — Nov 26 7:30 AM, Sawai Madhopur, Weather by CustomWeather, © 2015

Note: Actual official high and low records may vary slightly from our data, if they occured in-between our weather recording intervals... More about our weather records


Sawai Madhopur weather history for previous 24 hours

Time TempWeatherWind HumidityBarometerVisibility
7:30 AM
Thu, Nov 26
63 °FScattered clouds.3 mph56%30.01 "Hg1 mi
7:00 AM61 °FPassing clouds.No wind59%30.01 "Hg1 mi
6:30 AM63 °FPassing clouds.No wind52%29.98 "Hg1 mi
6:00 AM63 °FPassing clouds.No wind56%29.98 "Hg1 mi
5:00 AM63 °FPassing clouds.No wind56%29.98 "Hg1 mi
4:00 AM63 °FPassing clouds.2 mph52%29.98 "Hg1 mi
3:00 AM63 °FPassing clouds.No wind56%29.98 "Hg1 mi
2:00 AM64 °FPassing clouds.No wind52%30.01 "Hg1 mi
11:30 PM
Wed, Nov 25
66 °FPassing clouds.No wind49%30.04 "Hg1 mi
11:00 PM66 °FPassing clouds.No wind49%30.04 "Hg1 mi
10:30 PM66 °FPassing clouds.No wind49%30.04 "Hg1 mi
10:00 PM66 °FPassing clouds.No wind49%30.04 "Hg1 mi
9:30 PM70 °FPassing clouds.No wind46%30.04 "Hg1 mi
9:00 PM68 °FPassing clouds.No wind46%30.04 "Hg1 mi
8:30 PM70 °FPassing clouds.No wind43%30.04 "Hg1 mi
8:00 PM73 °FPassing clouds.3 mph38%30.04 "Hg1 mi
7:00 PM73 °FPassing clouds.No wind36%30.01 "Hg1 mi
6:30 PM77 °FPassing clouds.3 mph30%29.98 "Hg1 mi
6:00 PM79 °FScattered clouds.No wind28%29.98 "Hg1 mi
5:30 PM81 °FScattered clouds.3 mph26%29.98 "Hg1 mi
5:00 PM82 °FScattered clouds.6 mph23%29.98 "Hg1 mi
4:30 PM82 °FScattered clouds.6 mph21%29.98 "Hg1 mi
4:00 PM82 °FScattered clouds.6 mph21%29.98 "Hg1 mi
3:30 PM82 °FScattered clouds.7 mph21%29.98 "Hg1 mi
3:00 PM84 °FScattered clouds.7 mph20%29.98 "Hg1 mi
2:30 PM82 °FScattered clouds.6 mph21%30.01 "Hg1 mi
2:00 PM82 °FScattered clouds.7 mph20%30.01 "Hg1 mi
1:30 PM82 °FScattered clouds.3 mph21%30.01 "Hg1 mi
1:00 PM82 °FScattered clouds.3 mph19%30.04 "Hg1 mi
12:30 PM81 °FScattered clouds.3 mph23%30.04 "Hg1 mi
11:30 AM79 °FScattered clouds.5 mph24%30.07 "Hg1 mi
11:00 AM77 °FScattered clouds.6 mph28%30.07 "Hg1 mi
10:00 AM73 °FScattered clouds.7 mph36%30.09 "Hg1 mi
9:30 AM73 °FScattered clouds.7 mph36%30.09 "Hg1 mi
9:00 AM72 °FScattered clouds.3 mph38%30.07 "Hg1 mi
Weather by CustomWeather, © 2015

See weather overviewHow to use our weather pages